This demonstration page uses our WeatherBlox Daily Observations layout. Learn more.

Left ArrowRight Arrow

Hourly Observations for April 13, 2021

Temp ( °F °C ) Dew Point ( °F °C ) Humidity (%) Winds ( mph kmh ) Pressure ( in mb ) Visibility ( mi km ) Precip ( " mm )
12:53 am 00:53 Clear 44 6.7 43 6.1 96 96 N N/A 30.02 1017 10 16.0934 N/A
1:53 am 01:53 Clear 43 6.1 42 5.6 97 97 N N/A 30.04 1017 10 16.0934 N/A
2:53 am 02:53 Clear 42 5.6 41 5 96 96 N N/A 30.04 1017 8 12.87472 N/A
3:53 am 03:53 Clear 42 5.6 41 5 96 96 N N/A 30.06 1018 9 14.48406 N/A
4:53 am 04:53 Clear 44 6.7 43 6.1 96 96 NW 3 6 30.07 1018 10 16.0934 N/A
5:53 am 05:53 Mostly Clear 42 5.6 41 5 96 96 W 3 6 30.08 1019 10 16.0934 N/A
6:53 am 06:53 Mostly Cloudy 41 5 40 4.4 96 96 N N/A 30.09 1019 10 16.0934 N/A
7:53 am 07:53 Cloudy 45 7.2 44 6.7 97 97 N N/A 30.11 1020 10 16.0934 N/A
8:53 am 08:53 Cloudy 49 9.4 46 7.8 90 90 N N/A 30.14 1021 10 16.0934 N/A
9:53 am 09:53 Cloudy 52 11.1 45 7.2 77 77 WSW 3 6 30.16 1022 10 16.0934 N/A
10:53 am 10:53 Partly Cloudy 57 13.9 38 3.3 49 49 N N/A 30.18 1022 10 16.0934 N/A
11:53 am 11:53 Mostly Sunny 59 15 35 1.7 41 41 N N/A 30.16 1022 10 16.0934 N/A
12:53 pm 12:53 Sunny 64 17.8 33 0.6 32 32 N N/A 30.14 1021 10 16.0934 N/A
1:53 pm 13:53 Mostly Cloudy 65 18.3 37 2.8 36 36 SW 8 13 30.14 1021 10 16.0934 N/A
2:53 pm 14:53 Sunny 66 18.9 37 2.8 34 34 SW 8 13 30.12 1020 10 16.0934 N/A
3:53 pm 15:53 Sunny 66 18.9 38 3.3 36 36 WNW 5 7 30.1 1019 10 16.0934 N/A
4:53 pm 16:53 Sunny 68 20 38 3.3 33 33 WSW 8 13 30.08 1019 10 16.0934 N/A
5:53 pm 17:53 Partly Cloudy 67 19.4 38 3.3 35 35 WNW 7 11 30.09 1019 10 16.0934 N/A
6:53 pm 18:53 Partly Cloudy 66 18.9 40 4.4 39 39 W 6 9 30.09 1019 10 16.0934 N/A
7:53 pm 19:53 Cloudy 63 17.2 41 5 45 45 WSW 5 7 30.09 1019 10 16.0934 N/A
8:53 pm 20:53 Partly Cloudy 55 12.8 43 6.1 64 64 N N/A 30.11 1020 10 16.0934 N/A
9:53 pm 21:53 Cloudy 53 11.7 45 7.2 74 74 N N/A 30.12 1020 10 16.0934 N/A
10:53 pm 22:53 Clear 51 10.6 44 6.7 77 77 WNW 3 6 30.13 1020 10 16.0934 N/A
11:53 pm 23:53 Mostly Clear 47 8.3 43 6.1 86 86 N N/A 30.12 1020 10 16.0934 N/A

Powered by AerisWeather